H1 CPF 2 NER 2024 3 23 9 083 01 glonass139 H2 1808601 9139 43687 2024 3 23 0 0 0 2024 3 26 23 45 0 900 1 1 0 0 0 1 H9 10 0 60392 0.00000 0 843971.380 -12941507.990 -21949721.985 10 0 60392 900.00000 0 3017897.313 -11246286.003 -22680293.494 10 0 60392 1800.00000 0 5360569.961 -9677267.059 -22969728.964 10 0 60392 2700.00000 0 7817073.082 -8276837.240 -22812414.829 10 0 60392 3600.00000 0 10325868.710 -7077171.537 -22211433.851 10 0 60392 4500.00000 0 12821154.604 -6099029.370 -21178503.378 10 0 60392 5400.00000 0 15235411.886 -5351046.261 -19733745.076 10 0 60392 6300.00000 0 17502036.976 -4829550.382 -17905290.714 10 0 60392 7200.00000 0 19557948.301 -4518910.535 -15728731.672 10 0 60392 8100.00000 0 21346059.213 -4392399.676 -13246422.956 10 0 60392 9000.00000 0 22817514.116 -4413536.358 -10506655.328 10 0 60392 9900.00000 0 23933594.617 -4537846.287 -7562711.880 10 0 60392 10800.00000 0 24667216.412 -4714968.430 -4471827.666 10 0 60392 11700.00000 0 25003954.780 -4891015.604 -1294073.022 10 0 60392 12600.00000 0 24942556.427 -5011088.779 1908817.247 10 0 60392 13500.00000 0 24494917.081 -5021837.921 5074645.554 10 0 60392 14400.00000 0 23685526.691 -4873960.413 8141960.361 10 0 60392 15300.00000 0 22550406.475 -4524530.885 11051248.290 10 0 60392 16200.00000 0 21135583.278 -3939063.632 13746086.296 10 0 60392 17100.00000 0 19495165.924 -3093220.253 16174231.647 10 0 60392 18000.00000 0 17689104.646 -1974090.204 18288628.915 10 0 60392 18900.00000 0 15780727.592 -580990.029 20048315.067 10 0 60392 19800.00000 0 13834157.244 1074252.845 21419205.913 10 0 60392 20700.00000 0 11911714.266 2967544.336 22374749.516 10 0 60392 21600.00000 0 10071416.366 5063286.662 22896434.812 10 0 60392 22500.00000 0 8364675.527 7315629.345 22974146.342 10 0 60392 23400.00000 0 6834288.523 9670157.404 22606358.754 10 0 60392 24300.00000 0 5512803.360 12065947.894 21800167.589 10 0 60392 25200.00000 0 4421328.672 14437910.722 20571155.647 10 0 60392 26100.00000 0 3568834.842 16719317.772 18943097.138 10 0 60392 27000.00000 0 2951975.255 18844416.368 16947504.675 10 0 60392 27900.00000 0 2555434.606 20751019.355 14623026.953 10 0 60392 28800.00000 0 2352789.287 22382964.533 12014707.877 10 0 60392 29700.00000 0 2307843.465 23692341.289 9173120.498 10 0 60392 30600.00000 0 2376384.497 24641391.448 6153391.759 10 0 60392 31500.00000 0 2508283.523 25204004.622 3014136.381 10 0 60392 32400.00000 0 2649852.304 25366745.000 -183679.709 10 0 60392 33300.00000 0 2746356.313 25129365.960 -3377924.369 10 0 60392 34200.00000 0 2744577.158 24504790.328 -6506509.333 10 0 60392 35100.00000 0 2595315.063 23518556.586 -9508601.383 10 0 60392 36000.00000 0 2255724.468 22207753.888 -12325810.466 10 0 60392 36900.00000 0 1691382.679 20619490.411 -14903330.919 10 0 60392 37800.00000 0 878002.788 18808959.270 -17191012.986 10 0 60392 38700.00000 0 -197282.963 16837183.273 -19144343.256 10 0 60392 39600.00000 0 -1535124.955 14768533.280 -20725314.546 10 0 60392 40500.00000 0 -3123678.145 12668124.387 -21903168.103 10 0 60392 41400.00000 0 -4938857.263 10599199.110 -22654993.657 10 0 60392 42300.00000 0 -6945115.776 8620607.131 -22966175.678 10 0 60392 43200.00000 0 -9096717.025 6784486.881 -22830677.341 10 0 60392 44100.00000 0 -11339445.271 5134245.530 -22251156.820 10 0 60392 45000.00000 0 -13612685.795 3702921.253 -21238913.818 10 0 60392 45900.00000 0 -15851787.656 2511995.460 -19813667.449 10 0 60392 46800.00000 0 -17990610.822 1570703.610 -18003169.880 10 0 60392 47700.00000 0 -19964151.440 875872.266 -15842663.279 10 0 60392 48600.00000 0 -21711135.722 412287.819 -13374190.667 10 0 60392 49500.00000 0 -23176474.056 153579.898 -10645774.158 10 0 60392 50400.00000 0 -24313472.780 63580.800 -7710476.777 10 0 60392 51300.00000 0 -25085711.122 98102.171 -4625366.375 10 0 60392 52200.00000 0 -25468504.953 207052.589 -1450402.142 10 0 60392 53100.00000 0 -25449896.349 336805.361 1752734.105 10 0 60392 54000.00000 0 -25031127.962 432715.389 4921838.700 10 0 60392 54900.00000 0 -24226582.959 441677.805 7995395.189 10 0 60392 55800.00000 0 -23063193.697 314619.554 10913767.831 10 0 60392 56700.00000 0 -21579344.668 8818.122 13620356.258 10 0 60392 57600.00000 0 -19823316.202 -510050.817 16062688.987 10 0 60392 58500.00000 0 -17851334.549 -1266223.463 18193434.914 10 0 60392 59400.00000 0 -15725310.038 -2272587.090 19971313.763 10 0 60392 60300.00000 0 -13510357.623 -3529901.732 21361888.674 10 0 60392 61200.00000 0 -11272202.873 -5026537.525 22338226.394 10 0 60392 62100.00000 0 -9074580.773 -6738739.401 22881413.215 10 0 60392 63000.00000 0 -6976734.657 -8631409.027 22980917.402 10 0 60392 63900.00000 0 -5031118.252 -10659372.457 22634791.667 10 0 60392 64800.00000 0 -3281395.252 -12769081.970 21849712.020 10 0 60392 65700.00000 0 -1760818.413 -14900682.550 20640852.180 10 0 60392 66600.00000 0 -491054.620 -16990358.320 19031595.592 10 0 60392 67500.00000 0 518496.086 -18972862.425 17053089.946 10 0 60392 68400.00000 0 1270859.902 -20784126.005 14743651.944 10 0 60392 69300.00000 0 1781121.006 -22363838.145 12148032.881 10 0 60392 70200.00000 0 2075541.550 -23657889.544 9316558.347 10 0 60392 71100.00000 0 2190207.245 -24620577.760 6304157.849 10 0 60392 72000.00000 0 2169255.834 -25216481.495 3169302.656 10 0 60392 72900.00000 0 2062763.473 -25421924.802 -27127.884 10 0 60392 73800.00000 0 1924378.733 -25225969.082 -3223029.567 10 0 60392 74700.00000 0 1808804.767 -24630890.393 -6356282.795 10 0 60392 75600.00000 0 1769236.947 -23652121.174 -9365964.324 10 0 60392 76500.00000 0 1854865.309 -22317658.153 -12193537.107 10 0 60392 77400.00000 0 2108548.582 -20666960.662 -14783994.371 10 0 60392 78300.00000 0 2564759.385 -18749385.259 -17086935.053 10 0 60392 79200.00000 0 3247888.714 -16622222.054 -19057549.143 10 0 60392 80100.00000 0 4170982.617 -14348414.979 -20657493.348 10 0 60392 81000.00000 0 5334965.607 -11994061.463 -21855639.851 10 0 60392 81900.00000 0 6728384.770 -9625796.084 -22628683.568 10 0 60392 82800.00000 0 8327686.460 -7308167.550 -22961596.111 10 0 60392 83700.00000 0 10098014.986 -5101118.375 -22847917.815 10 0 60392 84600.00000 0 11994500.695 -3057672.120 -22289882.295 10 0 60392 85500.00000 0 13963984.179 -1221924.227 -21298371.268 10 0 60393 0.00000 0 15947104.759 372580.339 -19892700.738 10 0 60393 900.00000 0 17880667.313 1704016.668 -18100241.978 10 0 60393 1800.00000 0 19700185.866 2762946.957 -15955886.641 10 0 60393 2700.00000 0 21342501.139 3552461.338 -13501363.972 10 0 60393 3600.00000 0 22748359.717 4087785.976 -10784425.261 10 0 60393 4500.00000 0 23864847.799 4395377.399 -7857910.915 10 0 60393 5400.00000 0 24647577.226 4511542.691 -4778718.676 10 0 60393 6300.00000 0 25062532.130 4480645.255 -1606693.428 10 0 60393 7200.00000 0 25087498.774 4352973.341 1596539.349 10 0 60393 8100.00000 0 24713018.803 4182362.613 4768773.301 10 0 60393 9000.00000 0 23942826.211 4023674.308 7848430.391 10 0 60393 9900.00000 0 22793750.083 3930236.380 10775755.677 10 0 60393 10800.00000 0 21295087.643 3951356.358 13493974.377 10 0 60393 11700.00000 0 19487474.224 4130011.302 15950388.858 10 0 60393 12600.00000 0 17421297.745 4500812.551 18097394.580 10 0 60393 13500.00000 0 15154724.033 5088331.163 19893395.902 10 0 60393 14400.00000 0 12751415.210 5905854.648 21303604.780 10 0 60393 15300.00000 0 10278035.841 6954627.463 22300707.740 10 0 60393 16200.00000 0 7801649.914 8223607.548 22865389.095 10 0 60393 17100.00000 0 5387115.943 9689749.734 22986701.065 10 0 60393 18000.00000 0 3094587.331 11318805.026 22662274.178 10 0 60393 18900.00000 0 977220.574 13066603.448 21898364.188 10 0 60393 19800.00000 0 -920814.761 14880768.132 20709734.519 10 0 60393 20700.00000 0 -2565942.716 16702790.392 19119376.171 10 0 60393 21600.00000 0 -3936338.560 18470380.404 17158069.817 10 0 60393 22500.00000 0 -5022590.000 20119996.472 14863797.712 10 0 60393 23400.00000 0 -5827835.170 21589448.003 12281015.827 10 0 60393 24300.00000 0 -6367372.199 22820463.836 9459799.357 10 0 60393 25200.00000 0 -6667757.241 23761118.570 6454877.328 10 0 60393 26100.00000 0 -6765429.243 24368014.929 3324574.441 10 0 60393 27000.00000 0 -6704919.767 24608130.059 129680.334 10 0 60393 27900.00000 0 -6536723.810 24460247.426 -3067731.786 10 0 60393 28800.00000 0 -6314922.073 23915913.115 -6205513.944 10 0 60393 29700.00000 0 -6094655.901 22979875.329 -9222655.630 10 0 60393 30600.00000 0 -5929562.482 21669987.566 -12060475.312 10 0 60393 31500.00000 0 -5869279.791 20016578.619 -14663767.322 10 0 60393 32400.00000 0 -5957127.829 18061315.104 -16981881.176 10 0 60393 33300.00000 0 -6228065.294 15855603.626 -18969711.806 10 0 60393 34200.00000 0 -6707009.125 13458599.156 -20588581.016 10 0 60393 35100.00000 0 -7407588.906 10934902.684 -21806992.811 10 0 60393 36000.00000 0 -8331389.706 8352044.204 -22601247.845 10 0 60393 36900.00000 0 -9467716.172 5777856.007 -22955905.096 10 0 60393 37800.00000 0 -10793888.666 3277845.629 -22864081.928 10 0 60393 38700.00000 0 -12276059.757 912677.687 -22327586.881 10 0 60393 39600.00000 0 -13870517.366 -1264130.902 -21356882.753 10 0 60393 40500.00000 0 -15525420.381 -3208206.906 -19970880.812 10 0 60393 41400.00000 0 -17182894.250 -4885925.636 -18196570.179 10 0 60393 42300.00000 0 -18781398.812 -6275558.745 -16068489.655 10 0 60393 43200.00000 0 -20258269.077 -7367918.353 -13628052.297 10 0 60393 44100.00000 0 -21552322.273 -8166472.036 -10922735.929 10 0 60393 45000.00000 0 -22606421.522 -8686925.457 -8005155.555 10 0 60393 45900.00000 0 -23369888.315 -8956291.918 -4932035.959 10 0 60393 46800.00000 0 -23800662.231 -9011489.639 -1763104.833 10 0 60393 47700.00000 0 -23867117.006 -8897527.513 1440071.546 10 0 60393 48600.00000 0 -23549456.611 -8665357.309 4615286.972 10 0 60393 49500.00000 0 -22840632.704 -8369484.280 7700904.598 10 0 60393 50400.00000 0 -21746745.088 -8065438.053 10637052.956 10 0 60393 51300.00000 0 -20286908.539 -7807211.367 13366785.373 10 0 60393 52200.00000 0 -18492591.729 -7644775.202 15837180.365 10 0 60393 53100.00000 0 -16406456.031 -7621775.373 18000361.960 10 0 60393 54000.00000 0 -14080742.663 -7773507.678 19814420.787 10 0 60393 54900.00000 0 -11575275.170 -8125256.813 21244218.825 10 0 60393 55800.00000 0 -8955160.007 -8691068.843 22262063.113 10 0 60393 56700.00000 0 -6288280.117 -9473008.840 22848236.252 10 0 60393 57600.00000 0 -3642684.634 -10460935.092 22991374.217 10 0 60393 58500.00000 0 -1083981.995 -11632799.825 22688684.747 10 0 60393 59400.00000 0 1327156.685 -12955464.579 21946002.356 10 0 60393 60300.00000 0 3537281.651 -14385997.122 20777678.887 10 0 60393 61200.00000 0 5502142.386 -15873396.718 19206311.331 10 0 60393 62100.00000 0 7188278.286 -17360676.761 17262311.560 10 0 60393 63000.00000 0 8574156.935 -18787218.702 14983325.376 10 0 60393 63900.00000 0 9650813.352 -20091299.605 12413511.221 10 0 60393 64800.00000 0 10421964.159 -21212688.038 9602691.524 10 0 60393 65700.00000 0 10903592.426 -22095199.674 6605392.307 10 0 60393 66600.00000 0 11123021.043 -22689105.202 3479789.076 10 0 60393 67500.00000 0 11117513.961 -22953288.881 286579.098 10 0 60393 68400.00000 0 10932464.666 -22857066.167 -2912198.078 10 0 60393 69300.00000 0 10619248.756 -22381582.865 -6054368.684 10 0 60393 70200.00000 0 10232831.954 -21520735.772 -9078837.432 10 0 60393 71100.00000 0 9829235.319 -20281574.793 -11926780.663 10 0 60393 72000.00000 0 9462965.678 -18684168.418 -14542796.006 10 0 60393 72900.00000 0 9184520.799 -16760937.131 -16875985.560 10 0 60393 73800.00000 0 9038075.686 -14555481.790 -18880950.985 10 0 60393 74700.00000 0 9059448.675 -12120955.333 -20518680.693 10 0 60393 75600.00000 0 9274434.057 -9518045.403 -21757311.703 10 0 60393 76500.00000 0 9697572.360 -6812651.762 -22572751.257 10 0 60393 77400.00000 0 10331410.841 -4073355.101 -22949146.175 10 0 60393 78300.00000 0 11166285.923 -1368782.498 -22879190.960 10 0 60393 79200.00000 0 12180637.249 1235021.103 -22364268.833 10 0 60393 80100.00000 0 13341840.547 3677106.300 -21414423.108 10 0 60393 81000.00000 0 14607524.580 5903913.464 -20048159.572 10 0 60393 81900.00000 0 15927317.010 7871252.942 -18292083.777 10 0 60393 82800.00000 0 17244945.866 9545889.605 -16180380.315 10 0 60393 83700.00000 0 18500608.197 10906666.736 -13754144.281 10 0 60393 84600.00000 0 19633506.188 11945123.649 -11060577.957 10 0 60393 85500.00000 0 20584443.788 12665582.660 -8152068.558 10 0 60394 0.00000 0 21298374.248 13084703.378 -5085165.515 10 0 60394 900.00000 0 21726791.396 13230524.931 -1919475.874 10 0 60394 1800.00000 0 21829862.784 13141037.591 1283496.076 10 0 60394 2700.00000 0 21578215.994 12862346.263 4461547.392 10 0 60394 3600.00000 0 20954301.761 12446504.108 7552985.489 10 0 60394 4500.00000 0 19953276.950 11949109.053 10497825.320 10 0 60394 5400.00000 0 18583370.168 11426765.488 13238951.068 10 0 60394 6300.00000 0 16865714.601 10934518.734 15723219.889 10 0 60394 7200.00000 0 14833655.006 10523370.726 17902486.598 10 0 60394 8100.00000 0 12531557.576 10237981.590 19734529.994 10 0 60394 9000.00000 0 10013171.965 10114653.661 21183863.665 10 0 60394 9900.00000 0 7339613.139 10179682.435 22222416.391 10 0 60394 10800.00000 0 4577046.183 10448143.477 22830069.904 10 0 60394 11700.00000 0 1794169.191 10923166.030 22995044.369 10 0 60394 12600.00000 0 -940402.440 11595723.860 22714124.688 10 0 60394 13500.00000 0 -3560743.164 12444952.381 21992723.606 10 0 60394 14400.00000 0 -6006109.113 13438979.352 20844780.331 10 0 60394 15300.00000 0 -8223212.481 14536235.117 19292496.301 10 0 60394 16200.00000 0 -10168185.247 15687188.390 17365912.557 10 0 60394 17100.00000 0 -11808151.633 16836435.810 15102336.035 10 0 60394 18000.00000 0 -13122344.607 17925058.455 12545624.920 10 0 60394 18900.00000 0 -14102720.568 18893147.069 9745345.939 10 0 60394 19800.00000 0 -14754046.961 19682390.273 6755819.059 10 0 60394 20700.00000 0 -15093459.546 20238616.915 3635067.499 10 0 60394 21600.00000 0 -15149508.253 20514185.196 443693.093 10 0 60394 22500.00000 0 -14960732.085 20470117.231 -2756301.263 10 0 60394 23400.00000 0 -14573823.508 20077888.072 -5902718.894 10 0 60394 24300.00000 0 -14041460.248 19320792.584 -8934382.461 10 0 60394 25200.00000 0 -13419896.642 18194831.201 -11792328.698 10 0 60394 26100.00000 0 -12766416.975 16709075.889 -14420960.806 10 0 60394 27000.00000 0 -12136759.159 14885499.571 -16769135.455 10 0 60394 27900.00000 0 -11582618.360 12758274.934 -18791162.685 10 0 60394 28800.00000 0 -11149336.726 10372570.970 -20447698.840 10 0 60394 29700.00000 0 -10873877.427 7782896.775 -21706514.931 10 0 60394 30600.00000 0 -10783168.995 5051061.084 -22543125.433 10 0 60394 31500.00000 0 -10892890.263 2243832.217 -22941265.304 10 0 60394 32400.00000 0 -11206747.370 -569604.497 -22893206.129 10 0 60394 33300.00000 0 -11716273.546 -3320286.323 -22399905.379 10 0 60394 34200.00000 0 -12401160.182 -5942100.283 -21470986.071 10 0 60394 35100.00000 0 -13230105.282 -8374289.012 -20124547.309 10 0 60394 36000.00000 0 -14162143.529 -10563731.603 -18386809.480 10 0 60394 36900.00000 0 -15148401.827 -12466905.145 -16291601.029 10 0 60394 37800.00000 0 -16134206.174 -14051446.087 -13879696.853 10 0 60394 38700.00000 0 -17061450.827 -15297247.354 -11198021.217 10 0 60394 39600.00000 0 -17871129.586 -16197046.616 -8298730.916 10 0 60394 40500.00000 0 -18505922.070 -16756482.514 -5238196.733 10 0 60394 41400.00000 0 -18912725.547 -16993618.075 -2075903.382 10 0 60394 42300.00000 0 -19045025.152 -16937952.931 1126710.189 10 0 60394 43200.00000 0 -18865002.203 -16628967.478 4307447.118 10 0 60394 44100.00000 0 -18345291.457 -16114261.759 7404561.887 10 0 60394 45000.00000 0 -17470313.071 -15447368.741 10357958.607 10 0 60394 45900.00000 0 -16237123.027 -14685335.156 13110354.952 10 0 60394 46800.00000 0 -14655746.077 -13886172.511 15608389.184 10 0 60394 47700.00000 0 -12748976.990 -13106286.011 17803649.106 10 0 60394 48600.00000 0 -10551658.069 -12397989.630 19653603.564 10 0 60394 49500.00000 0 -8109462.567 -11807211.604 21122419.223 10 0 60394 50400.00000 0 -5477234.067 -11371486.348 22181647.639 10 0 60394 51300.00000 0 -2716950.010 -11118316.573 22810770.242 10 0 60394 52200.00000 0 104607.099 -11063973.842 22997591.477 10 0 60394 53100.00000 0 2918375.389 -11212787.465 22738473.085 10 0 60394 54000.00000 0 5655632.811 -11556951.397 22038405.311 10 0 60394 54900.00000 0 8250602.642 -12076857.306 20910913.649 10 0 60394 55800.00000 0 10642938.527 -12741940.202 19377802.585 10 0 60394 56700.00000 0 12779987.150 -13512001.707 17468740.653 10 0 60394 57600.00000 0 14618735.583 -14338956.141 15220693.973 10 0 60394 58500.00000 0 16127363.040 -15168926.789 12677218.257 10 0 60394 59400.00000 0 17286333.006 -15944604.838 9887622.059 10 0 60394 60300.00000 0 18088980.524 -16607772.160 6906016.582 10 0 60394 61200.00000 0 18541570.365 -17101881.766 3790269.866 10 0 60394 62100.00000 0 18662823.817 -17374586.971 600885.286 10 0 60394 63000.00000 0 18482934.218 -17380111.982 -2600173.966 10 0 60394 63900.00000 0 18042112.875 -17081362.976 -5750691.308 10 0 60394 64800.00000 0 17388726.979 -16451689.388 -8789410.199 10 0 60394 65700.00000 0 16577108.475 -15476219.727 -11657230.410 10 0 60394 66600.00000 0 15665126.902 -14152714.088 -14298363.095 10 0 60394 67500.00000 0 14711629.238 -12491895.976 -16661421.583 10 0 60394 68400.00000 0 13773855.434 -10517247.988 -18700426.086 10 0 60394 69300.00000 0 12904939.297 -8264278.621 -20375702.338 10 0 60394 70200.00000 0 12151600.627 -5779289.777 -21654656.466 10 0 60394 71100.00000 0 11552126.295 -3117695.508 -22512410.926 10 0 60394 72000.00000 0 11134725.571 -341961.472 -22932289.205 10 0 60394 72900.00000 0 10916329.049 2480749.643 -22906139.987 10 0 60394 73800.00000 0 10901881.673 5281129.132 -22434494.662 10 0 60394 74700.00000 0 11084159.445 7990364.002 -21526555.278 10 0 60394 75600.00000 0 11444117.232 10542759.890 -20200013.274 10 0 60394 76500.00000 0 11951752.645 12878236.509 -18480702.593 10 0 60394 77400.00000 0 12567449.183 14944592.225 -16402093.968 10 0 60394 78300.00000 0 13243741.533 16699444.074 -14004640.239 10 0 60394 79200.00000 0 13927428.086 18111763.126 -11334985.515 10 0 60394 80100.00000 0 14561940.989 19162942.006 -8445053.740 10 0 60394 81000.00000 0 15089873.151 19847351.128 -5391034.638 10 0 60394 81900.00000 0 15455554.940 20172361.658 -2232287.144 10 0 60394 82800.00000 0 15607571.274 20157835.671 969817.912 10 0 60394 83700.00000 0 15501112.329 19835106.433 4153092.848 10 0 60394 84600.00000 0 15100058.251 19245493.106 7255742.264 10 0 60394 85500.00000 0 14378709.608 18438413.688 10217562.369 10 0 60395 0.00000 0 13323090.461 17469176.776 12981106.826 10 0 60395 900.00000 0 11931768.299 16396545.335 15492797.998 10 0 60395 1800.00000 0 10216157.536 15280176.739 17703958.640 10 0 60395 2700.00000 0 8200291.517 14178045.078 19571749.568 10 0 60395 3600.00000 0 5920073.292 13143955.058 21059992.130 10 0 60395 4500.00000 0 3422035.165 12225250.861 22139861.918 10 0 60395 5400.00000 0 761657.819 11460815.468 22790440.947 10 0 60395 6300.00000 0 -1998682.259 10879443.525 22999118.421 10 0 60395 7200.00000 0 -4792053.078 10498655.212 22761832.933 10 0 60395 8100.00000 0 -7549499.458 10324000.201 22083151.749 10 0 60395 9000.00000 0 -10202663.784 10348880.492 20976185.655 10 0 60395 9900.00000 0 -12686387.829 10554899.401 19462340.663 10 0 60395 10800.00000 0 -14941188.921 10912722.205 17570910.795 10 0 60395 11700.00000 0 -16915508.636 11383412.625 15338518.906 10 0 60395 12600.00000 0 -18567641.270 11920189.444 12808415.452 10 0 60395 13500.00000 0 -19867262.287 12470529.824 10029647.791 10 0 60395 14400.00000 0 -20796493.288 12978531.079 7056115.209 10 0 60395 15300.00000 0 -21350459.107 13387431.523 3945527.384 10 0 60395 16200.00000 0 -21537313.711 13642183.853 758286.099 10 0 60395 17100.00000 0 -21377733.849 13691971.963 -2443688.200 10 0 60395 18000.00000 0 -20903901.752 13492564.067 -5598161.917 10 0 60395 18900.00000 0 -20158019.814 13008401.622 -8643802.061 10 0 60395 19800.00000 0 -19190420.075 12214334.489 -11521373.985 10 0 60395 20700.00000 0 -18057348.543 11096927.590 -14174899.120 10 0 60395 21600.00000 0 -16818518.209 9655282.408 -16552749.500 10 0 60395 22500.00000 0 -15534534.397 7901337.115 -18608657.224 10 0 60395 23400.00000 0 -14264301.437 5859631.248 -20302618.776 10 0 60395 24300.00000 0 -13062520.305 3566543.401 -21601676.362 10 0 60395 25200.00000 0 -11977382.846 1069032.648 -22480561.000 10 0 60395 26100.00000 0 -11048559.733 -1577064.707 -22922184.875 10 0 60395 27000.00000 0 -10305566.718 -4309112.759 -22917973.556 10 0 60395 27900.00000 0 -9766577.615 -7060042.114 -22468031.754 10 0 60395 28800.00000 0 -9437733.497 -9760906.407 -21581139.575 10 0 60395 29700.00000 0 -9312976.608 -12343523.235 -20274579.465 10 0 60395 30600.00000 0 -9374415.270 -14743089.982 -18573797.274 10 0 60395 31500.00000 0 -9593203.686 -16900665.954 -16511904.073 10 0 60395 32400.00000 0 -9930898.753 -18765417.859 -14129028.468 10 0 60395 33300.00000 0 -10341235.857 -20296535.543 -11471532.054 10 0 60395 34200.00000 0 -10772247.903 -21464738.610 -8591103.453 10 0 60395 35100.00000 0 -11168637.290 -22253311.851 -5543748.811 10 0 60395 36000.00000 0 -11474299.874 -22658627.102 -2388698.727 10 0 60395 36900.00000 0 -11634893.546 -22690130.853 812746.631 10 0 60395 37800.00000 0 -11600342.255 -22369799.398 3998411.298 10 0 60395 38700.00000 0 -11327169.146 -21731085.709 7106452.519 10 0 60395 39600.00000 0 -10780559.846 -20817403.529 10076561.097 10 0 60395 40500.00000 0 -9936068.477 -19680213.530 12851129.602 10 0 60395 41400.00000 0 -8780894.176 -18376792.766 15376365.827 10 0 60395 42300.00000 0 -7314674.036 -16967781.721 17603330.154 10 0 60395 43200.00000 0 -5549758.734 -15514612.098 19488877.287 10 0 60395 44100.00000 0 -3510958.671 -14076923.067 20996484.866 10 0 60395 45000.00000 0 -1234770.481 -12710073.814 22096953.766 10 0 60395 45900.00000 0 1231884.819 -11462855.783 22768967.438 10 0 60395 46800.00000 0 3833360.664 -10375499.445 22999500.285 10 0 60395 47700.00000 0 6507351.450 -9478058.032 22784067.795 10 0 60395 48600.00000 0 9187242.309 -8789234.899 22126813.914 10 0 60395 49500.00000 0 11804646.124 -8315702.791 21040434.012 10 0 60395 50400.00000 0 14292023.848 -8051942.988 19545934.603 10 0 60395 51300.00000 0 16585280.636 -7980610.693 17672233.841 10 0 60395 52200.00000 0 18626230.977 -8073411.293 15455609.660 10 0 60395 53100.00000 0 20364831.043 -8292450.761 12939005.295 10 0 60395 54000.00000 0 21761085.761 -8592003.623 10171204.632 10 0 60395 54900.00000 0 22786551.299 -8920624.208 7205892.468 10 0 60395 55800.00000 0 23425370.119 -9223512.265 4100617.278 10 0 60395 56700.00000 0 23674795.150 -9445032.960 915676.197 10 0 60395 57600.00000 0 23545180.862 -9531284.407 -2287056.247 10 0 60395 58500.00000 0 23059441.422 -9432603.537 -5445332.647 10 0 60395 59400.00000 0 22251998.567 -9105903.354 -8497746.651 10 0 60395 60300.00000 0 21167263.461 -8516741.579 -11384932.108 10 0 60395 61200.00000 0 19857716.558 -7641031.818 -14050723.357 10 0 60395 62100.00000 0 18381666.585 -6466323.485 -16443253.456 10 0 60395 63000.00000 0 16800783.264 -4992594.902 -18515968.380 10 0 60395 63900.00000 0 15177508.018 -3232524.601 -20228537.009 10 0 60395 64800.00000 0 13572451.816 -1211227.936 -21547638.940 10 0 60395 65700.00000 0 12041889.793 1034531.347 -22447614.716 10 0 60395 66600.00000 0 10635457.919 3457622.723 -22910965.853 10 0 60395 67500.00000 0 9394148.315 6002271.137 -22928695.081 10 0 60395 68400.00000 0 8348686.990 8606148.820 -22500480.358 10 0 60395 69300.00000 0 7518361.567 11202750.029 -21634679.425 10 0 60395 70200.00000 0 6910347.428 13723950.261 -20348164.964 10 0 60395 71100.00000 0 6519559.711 16102643.658 -18665993.610 10 0 60395 72000.00000 0 6329036.316 18275348.981 -16620915.318 10 0 60395 72900.00000 0 6310834.739 20184675.782 -14252732.662 10 0 60395 73800.00000 0 6427403.775 21781548.198 -11607522.597 10 0 60395 74700.00000 0 6633371.163 23027093.853 -8736735.980 10 0 60395 75600.00000 0 6877670.589 23894119.431 -5696192.639 10 0 60395 76500.00000 0 7105917.198 24368111.852 -2544991.869 10 0 60395 77400.00000 0 7262930.278 24447723.931 655639.963 10 0 60395 78300.00000 0 7295295.642 24144725.147 3843541.830 10 0 60395 79200.00000 0 7153858.722 23483420.661 6956826.822 10 0 60395 80100.00000 0 6796042.448 22499564.078 9935083.431 10 0 60395 81000.00000 0 6187891.609 21238810.584 12720545.812 10 0 60395 81900.00000 0 5305757.097 19754776.233 15259210.367 10 0 60395 82800.00000 0 4137548.716 18106785.387 17501877.253 10 0 60395 83700.00000 0 2683503.512 16357400.982 19405097.167 10 0 60395 84600.00000 0 956436.806 14569840.971 20932005.831 10 0 60395 85500.00000 0 -1018535.255 12805388.620 22053030.841 99